User: anonymous   Login
Location: Melque
(41.0517°N, 4.4694°W)
Time: 07:21:12
(UTC+00:00)
Language:

Meteor 2-20 - Orbit

View from above orbital plane
View from above orbital plane
View from above satellite
View from above satellite

Ground track
Ground track

The orbit is defined by the following mean orbital elements,

1 20826U          26037.84954831 +.00000000 +00000-0 +32336-4 0 00002
2 20826  82.5260 301.4936 0014188  35.7207 324.4900 13.84451659    03
Epoch (UTC): 06 February 2026 20:23:20
Eccentricity: 0.0014188
inclination: 82.5260°
perigee height: 938 km
apogee height: 959 km
right ascension of ascending node: 301.4936°
argument of perigee: 35.7207°
revolutions per day: 13.84451659
mean anomaly at epoch: 324.4900°

The dashed part of the orbit path shows where the satellite is in the earth's shadow,  

DLR